owner,sensor,date,latitude,longitude,sea_surface_height_above_sea_level,qcFlag 
COMPS,ioos:station:USF.COMPS:ARP:1,2015-02-01T00:00:00Z,28.4330,-82.6670,-0.161,1111122 
COMPS,ioos:station:USF.COMPS:ARP:1,2015-02-01T00:06:00Z,28.4330,-82.6670,-0.148,1111122 
COMPS,ioos:station:USF.COMPS:ARP:1,2015-02-01T00:12:00Z,28.4330,-82.6670,-0.136,1111122 
COMPS,ioos:station:USF.COMPS:ARP:1,2015-02-01T00:18:00Z,28.4330,-82.6670,-0.125,1111122 
COMPS,ioos:station:USF.COMPS:ARP:1,2015-02-01T00:24:00Z,28.4330,-82.6670,-0.112,1111122 
COMPS,ioos:station:USF.COMPS:ARP:1,2015-02-01T00:30:00Z,28.4330,-82.6670,-0.099,1111122 
COMPS,ioos:station:USF.COMPS:ARP:1,2015-02-01T00:36:00Z,28.4330,-82.6670,-0.083,1111122 
COMPS,ioos:station:USF.COMPS:ARP:1,2015-02-01T00:42:00Z,28.4330,-82.6670,-0.067,1111122 
COMPS,ioos:station:USF.COMPS:ARP:1,2015-02-01T00:48:00Z,28.4330,-82.6670,-0.051,1111122 
COMPS,ioos:station:USF.COMPS:ARP:1,2015-02-01T00:54:00Z,28.4330,-82.6670,-0.034,1111122 
COMPS,ioos:station:USF.COMPS:ARP:1,2015-02-01T01:00:00Z,28.4330,-82.6670,-0.018,1111122 
COMPS,ioos:station:USF.COMPS:ARP:1,2015-02-01T01:06:00Z,28.4330,-82.6670,-0.002,1111122 
COMPS,ioos:station:USF.COMPS:ARP:1,2015-02-01T01:12:00Z,28.4330,-82.6670,0.015,1111122 
COMPS,ioos:station:USF.COMPS:ARP:1,2015-02-01T01:18:00Z,28.4330,-82.6670,0.034,1111122 
COMPS,ioos:station:USF.COMPS:ARP:1,2015-02-01T01:24:00Z,28.4330,-82.6670,0.052,1111122 
COMPS,ioos:station:USF.COMPS:ARP:1,2015-02-01T01:30:00Z,28.4330,-82.6670,0.069,1111122 
COMPS,ioos:station:USF.COMPS:ARP:1,2015-02-01T01:36:00Z,28.4330,-82.6670,0.086,1111122 
COMPS,ioos:station:USF.COMPS:ARP:1,2015-02-01T01:42:00Z,28.4330,-82.6670,0.101,1111122 
COMPS,ioos:station:USF.COMPS:ARP:1,2015-02-01T01:48:00Z,28.4330,-82.6670,0.117,1111122 
COMPS,ioos:station:USF.COMPS:ARP:1,2015-02-01T01:54:00Z,28.4330,-82.6670,0.136,1111122 
COMPS,ioos:station:USF.COMPS:ARP:1,2015-02-01T02:00:00Z,28.4330,-82.6670,0.154,1111122 
COMPS,ioos:station:USF.COMPS:ARP:1,2015-02-01T02:06:00Z,28.4330,-82.6670,0.171,1111122 
COMPS,ioos:station:USF.COMPS:ARP:1,2015-02-01T02:12:00Z,28.4330,-82.6670,0.187,1111122 
COMPS,ioos:station:USF.COMPS:ARP:1,2015-02-01T02:18:00Z,28.4330,-82.6670,0.202,1111122 
COMPS,ioos:station:USF.COMPS:ARP:1,2015-02-01T02:24:00Z,28.4330,-82.6670,0.217,1111122 
COMPS,ioos:station:USF.COMPS:ARP:1,2015-02-01T02:30:00Z,28.4330,-82.6670,0.23,1111122 
COMPS,ioos:station:USF.COMPS:ARP:1,2015-02-01T02:36:00Z,28.4330,-82.6670,0.246,1111122 
COMPS,ioos:station:USF.COMPS:ARP:1,2015-02-01T02:42:00Z,28.4330,-82.6670,0.258,1111122 
COMPS,ioos:station:USF.COMPS:ARP:1,2015-02-01T02:48:00Z,28.4330,-82.6670,0.27,1111122 
COMPS,ioos:station:USF.COMPS:ARP:1,2015-02-01T02:54:00Z,28.4330,-82.6670,0.28,1111122 
COMPS,ioos:station:USF.COMPS:ARP:1,2015-02-01T03:00:00Z,28.4330,-82.6670,0.29,1111122 
COMPS,ioos:station:USF.COMPS:ARP:1,2015-02-01T03:06:00Z,28.4330,-82.6670,0.298,1111122 
COMPS,ioos:station:USF.COMPS:ARP:1,2015-02-01T03:12:00Z,28.4330,-82.6670,0.309,1111122 
COMPS,ioos:station:USF.COMPS:ARP:1,2015-02-01T03:18:00Z,28.4330,-82.6670,0.316,1111122 
COMPS,ioos:station:USF.COMPS:ARP:1,2015-02-01T03:24:00Z,28.4330,-82.6670,0.329,1111122 
COMPS,ioos:station:USF.COMPS:ARP:1,2015-02-01T03:30:00Z,28.4330,-82.6670,0.339,1111122 
COMPS,ioos:station:USF.COMPS:ARP:1,2015-02-01T03:36:00Z,28.4330,-82.6670,0.346,1111122 
COMPS,ioos:station:USF.COMPS:ARP:1,2015-02-01T03:42:00Z,28.4330,-82.6670,0.352,1111122 
COMPS,ioos:station:USF.COMPS:ARP:1,2015-02-01T03:48:00Z,28.4330,-82.6670,0.355,1111122 
COMPS,ioos:station:USF.COMPS:ARP:1,2015-02-01T03:54:00Z,28.4330,-82.6670,0.357,1111122 
COMPS,ioos:station:USF.COMPS:ARP:1,2015-02-01T04:00:00Z,28.4330,-82.6670,0.356,1111122 
COMPS,ioos:station:USF.COMPS:ARP:1,2015-02-01T04:06:00Z,28.4330,-82.6670,0.355,1111122 
COMPS,ioos:station:USF.COMPS:ARP:1,2015-02-01T04:12:00Z,28.4330,-82.6670,0.349,1111122 
COMPS,ioos:station:USF.COMPS:ARP:1,2015-02-01T04:18:00Z,28.4330,-82.6670,0.337,1111122 
COMPS,ioos:station:USF.COMPS:ARP:1,2015-02-01T04:24:00Z,28.4330,-82.6670,0.331,1111122 
COMPS,ioos:station:USF.COMPS:ARP:1,2015-02-01T04:30:00Z,28.4330,-82.6670,0.32,1111122 
COMPS,ioos:station:USF.COMPS:ARP:1,2015-02-01T04:36:00Z,28.4330,-82.6670,0.303,1111122 
COMPS,ioos:station:USF.COMPS:ARP:1,2015-02-01T04:42:00Z,28.4330,-82.6670,0.298,1111122 
COMPS,ioos:station:USF.COMPS:ARP:1,2015-02-01T04:48:00Z,28.4330,-82.6670,0.282,1111122 
COMPS,ioos:station:USF.COMPS:ARP:1,2015-02-01T04:54:00Z,28.4330,-82.6670,0.274,1111122 
COMPS,ioos:station:USF.COMPS:ARP:1,2015-02-01T05:00:00Z,28.4330,-82.6670,0.264,1111122 
COMPS,ioos:station:USF.COMPS:ARP:1,2015-02-01T05:06:00Z,28.4330,-82.6670,0.25,1111122 
COMPS,ioos:station:USF.COMPS:ARP:1,2015-02-01T05:12:00Z,28.4330,-82.6670,0.239,1111122 
COMPS,ioos:station:USF.COMPS:ARP:1,2015-02-01T05:18:00Z,28.4330,-82.6670,0.224,1111122 
COMPS,ioos:station:USF.COMPS:ARP:1,2015-02-01T05:24:00Z,28.4330,-82.6670,0.21,1111122 
COMPS,ioos:station:USF.COMPS:ARP:1,2015-02-01T05:30:00Z,28.4330,-82.6670,0.196,1111122 
COMPS,ioos:station:USF.COMPS:ARP:1,2015-02-01T05:36:00Z,28.4330,-82.6670,0.181,1111122 
COMPS,ioos:station:USF.COMPS:ARP:1,2015-02-01T05:42:00Z,28.4330,-82.6670,0.161,1111122 
COMPS,ioos:station:USF.COMPS:ARP:1,2015-02-01T05:48:00Z,28.4330,-82.6670,0.15,1111122 
COMPS,ioos:station:USF.COMPS:ARP:1,2015-02-01T05:54:00Z,28.4330,-82.6670,0.133,1111122 
COMPS,ioos:station:USF.COMPS:ARP:1,2015-02-01T06:00:00Z,28.4330,-82.6670,0.114,1111122 
COMPS,ioos:station:USF.COMPS:ARP:1,2015-02-01T06:06:00Z,28.4330,-82.6670,0.102,1111122 
COMPS,ioos:station:USF.COMPS:ARP:1,2015-02-01T06:12:00Z,28.4330,-82.6670,0.086,1111122 
COMPS,ioos:station:USF.COMPS:ARP:1,2015-02-01T06:18:00Z,28.4330,-82.6670,0.074,1111122 
COMPS,ioos:station:USF.COMPS:ARP:1,2015-02-01T06:24:00Z,28.4330,-82.6670,0.062,1111122 
COMPS,ioos:station:USF.COMPS:ARP:1,2015-02-01T06:30:00Z,28.4330,-82.6670,0.051,1111122 
COMPS,ioos:station:USF.COMPS:ARP:1,2015-02-01T06:36:00Z,28.4330,-82.6670,0.035,1111122 
COMPS,ioos:station:USF.COMPS:ARP:1,2015-02-01T06:42:00Z,28.4330,-82.6670,0.024,1111122 
COMPS,ioos:station:USF.COMPS:ARP:1,2015-02-01T06:48:00Z,28.4330,-82.6670,0.012,1111122 
COMPS,ioos:station:USF.COMPS:ARP:1,2015-02-01T06:54:00Z,28.4330,-82.6670,-0.005,1111122 
COMPS,ioos:station:USF.COMPS:ARP:1,2015-02-01T07:00:00Z,28.4330,-82.6670,-0.021,1111122 
COMPS,ioos:station:USF.COMPS:ARP:1,2015-02-01T07:06:00Z,28.4330,-82.6670,-0.037,1111122 
COMPS,ioos:station:USF.COMPS:ARP:1,2015-02-01T07:12:00Z,28.4330,-82.6670,-0.054,1111122 
COMPS,ioos:station:USF.COMPS:ARP:1,2015-02-01T07:18:00Z,28.4330,-82.6670,-0.07,1111122 
COMPS,ioos:station:USF.COMPS:ARP:1,2015-02-01T07:24:00Z,28.4330,-82.6670,-0.089,1111122 
COMPS,ioos:station:USF.COMPS:ARP:1,2015-02-01T07:30:00Z,28.4330,-82.6670,-0.105,1111122 
COMPS,ioos:station:USF.COMPS:ARP:1,2015-02-01T07:36:00Z,28.4330,-82.6670,-0.121,1111122 
COMPS,ioos:station:USF.COMPS:ARP:1,2015-02-01T07:42:00Z,28.4330,-82.6670,-0.136,1111122 
COMPS,ioos:station:USF.COMPS:ARP:1,2015-02-01T07:48:00Z,28.4330,-82.6670,-0.153,1111122 
COMPS,ioos:station:USF.COMPS:ARP:1,2015-02-01T07:54:00Z,28.4330,-82.6670,-0.17,1111122 
COMPS,ioos:station:USF.COMPS:ARP:1,2015-02-01T08:00:00Z,28.4330,-82.6670,-0.186,1111122 
COMPS,ioos:station:USF.COMPS:ARP:1,2015-02-01T08:06:00Z,28.4330,-82.6670,-0.201,1111122 
COMPS,ioos:station:USF.COMPS:ARP:1,2015-02-01T08:12:00Z,28.4330,-82.6670,-0.216,1111122 
COMPS,ioos:station:USF.COMPS:ARP:1,2015-02-01T08:18:00Z,28.4330,-82.6670,-0.231,1111122 
COMPS,ioos:station:USF.COMPS:ARP:1,2015-02-01T08:24:00Z,28.4330,-82.6670,-0.246,1111122 
COMPS,ioos:station:USF.COMPS:ARP:1,2015-02-01T08:30:00Z,28.4330,-82.6670,-0.26,1111122 
COMPS,ioos:station:USF.COMPS:ARP:1,2015-02-01T08:36:00Z,28.4330,-82.6670,-0.274,1111122 
COMPS,ioos:station:USF.COMPS:ARP:1,2015-02-01T08:42:00Z,28.4330,-82.6670,-0.289,1111122 
COMPS,ioos:station:USF.COMPS:ARP:1,2015-02-01T08:48:00Z,28.4330,-82.6670,-0.303,1111122 
COMPS,ioos:station:USF.COMPS:ARP:1,2015-02-01T08:54:00Z,28.4330,-82.6670,-0.317,1111122 
COMPS,ioos:station:USF.COMPS:ARP:1,2015-02-01T09:00:00Z,28.4330,-82.6670,-0.33,1111122 
COMPS,ioos:station:USF.COMPS:ARP:1,2015-02-01T09:06:00Z,28.4330,-82.6670,-0.343,1111122 
COMPS,ioos:station:USF.COMPS:ARP:1,2015-02-01T09:12:00Z,28.4330,-82.6670,-0.356,1111122 
COMPS,ioos:station:USF.COMPS:ARP:1,2015-02-01T09:18:00Z,28.4330,-82.6670,-0.368,1111122 
COMPS,ioos:station:USF.COMPS:ARP:1,2015-02-01T09:24:00Z,28.4330,-82.6670,-0.381,1111122 
COMPS,ioos:station:USF.COMPS:ARP:1,2015-02-01T09:30:00Z,28.4330,-82.6670,-0.392,1111122 
COMPS,ioos:station:USF.COMPS:ARP:1,2015-02-01T09:36:00Z,28.4330,-82.6670,-0.404,1111122 
COMPS,ioos:station:USF.COMPS:ARP:1,2015-02-01T09:42:00Z,28.4330,-82.6670,-0.415,1111122 
COMPS,ioos:station:USF.COMPS:ARP:1,2015-02-01T09:48:00Z,28.4330,-82.6670,-0.426,1111122 
COMPS,ioos:station:USF.COMPS:ARP:1,2015-02-01T09:54:00Z,28.4330,-82.6670,-0.436,1111122 
COMPS,ioos:station:USF.COMPS:ARP:1,2015-02-01T10:00:00Z,28.4330,-82.6670,-0.446,1111122 
COMPS,ioos:station:USF.COMPS:ARP:1,2015-02-01T10:06:00Z,28.4330,-82.6670,-0.455,1111122 
COMPS,ioos:station:USF.COMPS:ARP:1,2015-02-01T10:12:00Z,28.4330,-82.6670,-0.464,1111122 
COMPS,ioos:station:USF.COMPS:ARP:1,2015-02-01T10:18:00Z,28.4330,-82.6670,-0.473,1111122 
COMPS,ioos:station:USF.COMPS:ARP:1,2015-02-01T10:24:00Z,28.4330,-82.6670,-0.482,1111122 
COMPS,ioos:station:USF.COMPS:ARP:1,2015-02-01T10:30:00Z,28.4330,-82.6670,-0.49,1111122 
COMPS,ioos:station:USF.COMPS:ARP:1,2015-02-01T10:36:00Z,28.4330,-82.6670,-0.498,1111122 
COMPS,ioos:station:USF.COMPS:ARP:1,2015-02-01T10:42:00Z,28.4330,-82.6670,-0.506,1111122 
COMPS,ioos:station:USF.COMPS:ARP:1,2015-02-01T10:48:00Z,28.4330,-82.6670,-0.514,1111122 
COMPS,ioos:station:USF.COMPS:ARP:1,2015-02-01T10:54:00Z,28.4330,-82.6670,-0.521,1111122 
COMPS,ioos:station:USF.COMPS:ARP:1,2015-02-01T11:00:00Z,28.4330,-82.6670,-0.527,1111122 
COMPS,ioos:station:USF.COMPS:ARP:1,2015-02-01T11:06:00Z,28.4330,-82.6670,-0.533,1111122 
COMPS,ioos:station:USF.COMPS:ARP:1,2015-02-01T11:12:00Z,28.4330,-82.6670,-0.539,1111122 
COMPS,ioos:station:USF.COMPS:ARP:1,2015-02-01T11:18:00Z,28.4330,-82.6670,-0.545,1111122 
COMPS,ioos:station:USF.COMPS:ARP:1,2015-02-01T11:24:00Z,28.4330,-82.6670,-0.551,1111122 
COMPS,ioos:station:USF.COMPS:ARP:1,2015-02-01T11:30:00Z,28.4330,-82.6670,-0.556,1111122 
COMPS,ioos:station:USF.COMPS:ARP:1,2015-02-01T11:36:00Z,28.4330,-82.6670,-0.562,1111122 
COMPS,ioos:station:USF.COMPS:ARP:1,2015-02-01T11:42:00Z,28.4330,-82.6670,-0.567,1111122 
COMPS,ioos:station:USF.COMPS:ARP:1,2015-02-01T11:48:00Z,28.4330,-82.6670,-0.572,1111122 
COMPS,ioos:station:USF.COMPS:ARP:1,2015-02-01T11:54:00Z,28.4330,-82.6670,-0.576,1111122 
COMPS,ioos:station:USF.COMPS:ARP:1,2015-02-01T12:00:00Z,28.4330,-82.6670,-0.58,1111122 
COMPS,ioos:station:USF.COMPS:ARP:1,2015-02-01T12:06:00Z,28.4330,-82.6670,-0.585,1111122 
COMPS,ioos:station:USF.COMPS:ARP:1,2015-02-01T12:12:00Z,28.4330,-82.6670,-0.588,1111122 
COMPS,ioos:station:USF.COMPS:ARP:1,2015-02-01T12:18:00Z,28.4330,-82.6670,-0.591,1111122 
COMPS,ioos:station:USF.COMPS:ARP:1,2015-02-01T12:24:00Z,28.4330,-82.6670,-0.593,1111122 
COMPS,ioos:station:USF.COMPS:ARP:1,2015-02-01T12:30:00Z,28.4330,-82.6670,-0.594,1111122 
COMPS,ioos:station:USF.COMPS:ARP:1,2015-02-01T12:36:00Z,28.4330,-82.6670,-0.594,1111122 
COMPS,ioos:station:USF.COMPS:ARP:1,2015-02-01T12:42:00Z,28.4330,-82.6670,-0.592,1111122 
COMPS,ioos:station:USF.COMPS:ARP:1,2015-02-01T12:48:00Z,28.4330,-82.6670,-0.587,1111122 
COMPS,ioos:station:USF.COMPS:ARP:1,2015-02-01T12:54:00Z,28.4330,-82.6670,-0.582,1111122 
COMPS,ioos:station:USF.COMPS:ARP:1,2015-02-01T13:00:00Z,28.4330,-82.6670,-0.579,1111122 
COMPS,ioos:station:USF.COMPS:ARP:1,2015-02-01T13:06:00Z,28.4330,-82.6670,-0.573,1111122 
COMPS,ioos:station:USF.COMPS:ARP:1,2015-02-01T13:12:00Z,28.4330,-82.6670,-0.565,1111122 
COMPS,ioos:station:USF.COMPS:ARP:1,2015-02-01T13:18:00Z,28.4330,-82.6670,-0.556,1111122 
COMPS,ioos:station:USF.COMPS:ARP:1,2015-02-01T13:24:00Z,28.4330,-82.6670,-0.544,1111122 
COMPS,ioos:station:USF.COMPS:ARP:1,2015-02-01T13:30:00Z,28.4330,-82.6670,-0.531,1111122 
COMPS,ioos:station:USF.COMPS:ARP:1,2015-02-01T13:36:00Z,28.4330,-82.6670,-0.517,1111122 
COMPS,ioos:station:USF.COMPS:ARP:1,2015-02-01T13:42:00Z,28.4330,-82.6670,-0.505,1111122 
COMPS,ioos:station:USF.COMPS:ARP:1,2015-02-01T13:48:00Z,28.4330,-82.6670,-0.49,1111122 
COMPS,ioos:station:USF.COMPS:ARP:1,2015-02-01T13:54:00Z,28.4330,-82.6670,-0.473,1111122 
COMPS,ioos:station:USF.COMPS:ARP:1,2015-02-01T14:00:00Z,28.4330,-82.6670,-0.455,1111122 
COMPS,ioos:station:USF.COMPS:ARP:1,2015-02-01T14:06:00Z,28.4330,-82.6670,-0.435,1111122 
COMPS,ioos:station:USF.COMPS:ARP:1,2015-02-01T14:12:00Z,28.4330,-82.6670,-0.412,1111122 
COMPS,ioos:station:USF.COMPS:ARP:1,2015-02-01T14:18:00Z,28.4330,-82.6670,-0.386,1111122 
COMPS,ioos:station:USF.COMPS:ARP:1,2015-02-01T14:24:00Z,28.4330,-82.6670,-0.357,1111122 
COMPS,ioos:station:USF.COMPS:ARP:1,2015-02-01T14:36:00Z,28.4330,-82.6670,-0.294,1111122 
COMPS,ioos:station:USF.COMPS:ARP:1,2015-02-01T14:42:00Z,28.4330,-82.6670,-0.26,1111122 
COMPS,ioos:station:USF.COMPS:ARP:1,2015-02-01T14:48:00Z,28.4330,-82.6670,-0.226,1111122 
COMPS,ioos:station:USF.COMPS:ARP:1,2015-02-01T14:54:00Z,28.4330,-82.6670,-0.189,1111122 
COMPS,ioos:station:USF.COMPS:ARP:1,2015-02-01T15:00:00Z,28.4330,-82.6670,-0.152,1111122 
COMPS,ioos:station:USF.COMPS:ARP:1,2015-02-01T15:06:00Z,28.4330,-82.6670,-0.115,1111122 
COMPS,ioos:station:USF.COMPS:ARP:1,2015-02-01T15:12:00Z,28.4330,-82.6670,-0.08,1111122 
COMPS,ioos:station:USF.COMPS:ARP:1,2015-02-01T15:18:00Z,28.4330,-82.6670,-0.047,1111122 
COMPS,ioos:station:USF.COMPS:ARP:1,2015-02-01T15:24:00Z,28.4330,-82.6670,-0.014,1111122 
COMPS,ioos:station:USF.COMPS:ARP:1,2015-02-01T15:30:00Z,28.4330,-82.6670,0.015,1111122 
COMPS,ioos:station:USF.COMPS:ARP:1,2015-02-01T15:36:00Z,28.4330,-82.6670,0.04,1111122 
COMPS,ioos:station:USF.COMPS:ARP:1,2015-02-01T15:42:00Z,28.4330,-82.6670,0.067,1111122 
COMPS,ioos:station:USF.COMPS:ARP:1,2015-02-01T15:48:00Z,28.4330,-82.6670,0.089,1111122 
COMPS,ioos:station:USF.COMPS:ARP:1,2015-02-01T15:54:00Z,28.4330,-82.6670,0.104,1111122 
COMPS,ioos:station:USF.COMPS:ARP:1,2015-02-01T16:00:00Z,28.4330,-82.6670,0.127,1111122 
COMPS,ioos:station:USF.COMPS:ARP:1,2015-02-01T16:06:00Z,28.4330,-82.6670,0.142,1111122 
COMPS,ioos:station:USF.COMPS:ARP:1,2015-02-01T16:12:00Z,28.4330,-82.6670,0.155,1111122 
COMPS,ioos:station:USF.COMPS:ARP:1,2015-02-01T16:18:00Z,28.4330,-82.6670,0.175,1111122 
COMPS,ioos:station:USF.COMPS:ARP:1,2015-02-01T16:24:00Z,28.4330,-82.6670,0.191,1111122 
COMPS,ioos:station:USF.COMPS:ARP:1,2015-02-01T16:30:00Z,28.4330,-82.6670,0.204,1111122 
COMPS,ioos:station:USF.COMPS:ARP:1,2015-02-01T16:36:00Z,28.4330,-82.6670,0.216,1111122 
COMPS,ioos:station:USF.COMPS:ARP:1,2015-02-01T16:42:00Z,28.4330,-82.6670,0.217,1111122 
COMPS,ioos:station:USF.COMPS:ARP:1,2015-02-01T16:48:00Z,28.4330,-82.6670,0.245,1111122 
COMPS,ioos:station:USF.COMPS:ARP:1,2015-02-01T16:54:00Z,28.4330,-82.6670,0.253,1111122 
COMPS,ioos:station:USF.COMPS:ARP:1,2015-02-01T17:00:00Z,28.4330,-82.6670,0.256,1111122 
COMPS,ioos:station:USF.COMPS:ARP:1,2015-02-01T17:06:00Z,28.4330,-82.6670,0.266,1111122 
COMPS,ioos:station:USF.COMPS:ARP:1,2015-02-01T17:12:00Z,28.4330,-82.6670,0.273,1111122 
COMPS,ioos:station:USF.COMPS:ARP:1,2015-02-01T17:18:00Z,28.4330,-82.6670,0.281,1111122 
COMPS,ioos:station:USF.COMPS:ARP:1,2015-02-01T17:24:00Z,28.4330,-82.6670,0.29,1111122 
COMPS,ioos:station:USF.COMPS:ARP:1,2015-02-01T17:30:00Z,28.4330,-82.6670,0.297,1111122 
COMPS,ioos:station:USF.COMPS:ARP:1,2015-02-01T17:36:00Z,28.4330,-82.6670,0.309,1111122 
COMPS,ioos:station:USF.COMPS:ARP:1,2015-02-01T17:42:00Z,28.4330,-82.6670,0.309,1111122 
COMPS,ioos:station:USF.COMPS:ARP:1,2015-02-01T17:48:00Z,28.4330,-82.6670,0.321,1111122 
COMPS,ioos:station:USF.COMPS:ARP:1,2015-02-01T17:54:00Z,28.4330,-82.6670,0.322,1111122 
COMPS,ioos:station:USF.COMPS:ARP:1,2015-02-01T18:00:00Z,28.4330,-82.6670,0.326,1111122 
COMPS,ioos:station:USF.COMPS:ARP:1,2015-02-01T18:06:00Z,28.4330,-82.6670,0.307,1111122 
COMPS,ioos:station:USF.COMPS:ARP:1,2015-02-01T18:12:00Z,28.4330,-82.6670,0.288,1111122 
COMPS,ioos:station:USF.COMPS:ARP:1,2015-02-01T18:18:00Z,28.4330,-82.6670,0.273,1111122 
COMPS,ioos:station:USF.COMPS:ARP:1,2015-02-01T18:24:00Z,28.4330,-82.6670,0.272,1111122 
COMPS,ioos:station:USF.COMPS:ARP:1,2015-02-01T18:30:00Z,28.4330,-82.6670,0.26,1111122 
COMPS,ioos:station:USF.COMPS:ARP:1,2015-02-01T18:36:00Z,28.4330,-82.6670,0.241,1111122 
COMPS,ioos:station:USF.COMPS:ARP:1,2015-02-01T18:42:00Z,28.4330,-82.6670,0.226,1111122 
COMPS,ioos:station:USF.COMPS:ARP:1,2015-02-01T18:48:00Z,28.4330,-82.6670,0.213,1111122 
COMPS,ioos:station:USF.COMPS:ARP:1,2015-02-01T18:54:00Z,28.4330,-82.6670,0.216,1111122 
COMPS,ioos:station:USF.COMPS:ARP:1,2015-02-01T19:00:00Z,28.4330,-82.6670,0.195,1111122 
COMPS,ioos:station:USF.COMPS:ARP:1,2015-02-01T19:06:00Z,28.4330,-82.6670,0.189,1111122 
COMPS,ioos:station:USF.COMPS:ARP:1,2015-02-01T19:12:00Z,28.4330,-82.6670,0.206,1111122 
COMPS,ioos:station:USF.COMPS:ARP:1,2015-02-01T19:18:00Z,28.4330,-82.6670,0.198,1111122 
COMPS,ioos:station:USF.COMPS:ARP:1,2015-02-01T19:24:00Z,28.4330,-82.6670,0.198,1111122 
COMPS,ioos:station:USF.COMPS:ARP:1,2015-02-01T19:30:00Z,28.4330,-82.6670,0.18,1111122 
COMPS,ioos:station:USF.COMPS:ARP:1,2015-02-01T19:36:00Z,28.4330,-82.6670,0.169,1111122 
COMPS,ioos:station:USF.COMPS:ARP:1,2015-02-01T19:42:00Z,28.4330,-82.6670,0.167,1111122 
COMPS,ioos:station:USF.COMPS:ARP:1,2015-02-01T19:48:00Z,28.4330,-82.6670,0.151,1111122 
COMPS,ioos:station:USF.COMPS:ARP:1,2015-02-01T19:54:00Z,28.4330,-82.6670,0.132,1111122 
COMPS,ioos:station:USF.COMPS:ARP:1,2015-02-01T20:00:00Z,28.4330,-82.6670,0.119,1111122 
COMPS,ioos:station:USF.COMPS:ARP:1,2015-02-01T20:06:00Z,28.4330,-82.6670,0.094,1111122 
COMPS,ioos:station:USF.COMPS:ARP:1,2015-02-01T20:18:00Z,28.4330,-82.6670,0.079,1111122 
COMPS,ioos:station:USF.COMPS:ARP:1,2015-02-01T20:24:00Z,28.4330,-82.6670,0.077,1111122 
COMPS,ioos:station:USF.COMPS:ARP:1,2015-02-01T20:30:00Z,28.4330,-82.6670,0.066,1111122 
COMPS,ioos:station:USF.COMPS:ARP:1,2015-02-01T20:36:00Z,28.4330,-82.6670,0.048,1111122 
COMPS,ioos:station:USF.COMPS:ARP:1,2015-02-01T20:42:00Z,28.4330,-82.6670,0.047,1111122 
COMPS,ioos:station:USF.COMPS:ARP:1,2015-02-01T20:48:00Z,28.4330,-82.6670,0.034,1111122 
COMPS,ioos:station:USF.COMPS:ARP:1,2015-02-01T20:54:00Z,28.4330,-82.6670,0.02,1111122 
COMPS,ioos:station:USF.COMPS:ARP:1,2015-02-01T21:00:00Z,28.4330,-82.6670,0.008,1111122 
COMPS,ioos:station:USF.COMPS:ARP:1,2015-02-01T21:06:00Z,28.4330,-82.6670,0.0,1114422 
COMPS,ioos:station:USF.COMPS:ARP:1,2015-02-01T21:12:00Z,28.4330,-82.6670,0.002,1111122 
COMPS,ioos:station:USF.COMPS:ARP:1,2015-02-01T21:18:00Z,28.4330,-82.6670,-0.004,1111122 
COMPS,ioos:station:USF.COMPS:ARP:1,2015-02-01T21:24:00Z,28.4330,-82.6670,-0.004,1111122 
COMPS,ioos:station:USF.COMPS:ARP:1,2015-02-01T21:30:00Z,28.4330,-82.6670,-0.011,1111122 
COMPS,ioos:station:USF.COMPS:ARP:1,2015-02-01T21:36:00Z,28.4330,-82.6670,0.0,1114422 
COMPS,ioos:station:USF.COMPS:ARP:1,2015-02-01T21:48:00Z,28.4330,-82.6670,0.025,1111122 
COMPS,ioos:station:USF.COMPS:ARP:1,2015-02-01T21:54:00Z,28.4330,-82.6670,0.042,1111122 
COMPS,ioos:station:USF.COMPS:ARP:1,2015-02-01T22:00:00Z,28.4330,-82.6670,0.045,1111122 
COMPS,ioos:station:USF.COMPS:ARP:1,2015-02-01T22:06:00Z,28.4330,-82.6670,0.033,1111122 
COMPS,ioos:station:USF.COMPS:ARP:1,2015-02-01T22:12:00Z,28.4330,-82.6670,0.03,1111122 
COMPS,ioos:station:USF.COMPS:ARP:1,2015-02-01T22:18:00Z,28.4330,-82.6670,0.002,1111122 
COMPS,ioos:station:USF.COMPS:ARP:1,2015-02-01T22:24:00Z,28.4330,-82.6670,-0.004,1111122 
COMPS,ioos:station:USF.COMPS:ARP:1,2015-02-01T22:30:00Z,28.4330,-82.6670,-0.009,1111122 
COMPS,ioos:station:USF.COMPS:ARP:1,2015-02-01T22:36:00Z,28.4330,-82.6670,-0.006,1111122 
COMPS,ioos:station:USF.COMPS:ARP:1,2015-02-01T22:42:00Z,28.4330,-82.6670,-0.005,1111122 
COMPS,ioos:station:USF.COMPS:ARP:1,2015-02-01T22:48:00Z,28.4330,-82.6670,-0.001,1111122 
COMPS,ioos:station:USF.COMPS:ARP:1,2015-02-01T22:54:00Z,28.4330,-82.6670,-0.002,1111122 
COMPS,ioos:station:USF.COMPS:ARP:1,2015-02-01T23:00:00Z,28.4330,-82.6670,-0.005,1111122 
COMPS,ioos:station:USF.COMPS:ARP:1,2015-02-01T23:06:00Z,28.4330,-82.6670,-0.003,1111122 
COMPS,ioos:station:USF.COMPS:ARP:1,2015-02-01T23:12:00Z,28.4330,-82.6670,0.01,1111122 
COMPS,ioos:station:USF.COMPS:ARP:1,2015-02-01T23:18:00Z,28.4330,-82.6670,0.012,1111122 
COMPS,ioos:station:USF.COMPS:ARP:1,2015-02-01T23:24:00Z,28.4330,-82.6670,0.033,1111122 
COMPS,ioos:station:USF.COMPS:ARP:1,2015-02-01T23:30:00Z,28.4330,-82.6670,0.042,1111122 
COMPS,ioos:station:USF.COMPS:ARP:1,2015-02-01T23:36:00Z,28.4330,-82.6670,0.058,1111122 
COMPS,ioos:station:USF.COMPS:ARP:1,2015-02-01T23:42:00Z,28.4330,-82.6670,0.071,1111122 
COMPS,ioos:station:USF.COMPS:ARP:1,2015-02-01T23:48:00Z,28.4330,-82.6670,0.084,1111122 
COMPS,ioos:station:USF.COMPS:ARP:1,2015-02-01T23:54:00Z,28.4330,-82.6670,0.096,1111122 
COMPS,ioos:station:USF.COMPS:ARP:1,2015-02-02T00:00:00Z,28.4330,-82.6670,0.11,1111122 
COMPS,ioos:station:USF.COMPS:ARP:1,2015-02-02T00:06:00Z,28.4330,-82.6670,0.12,1111122 
COMPS,ioos:station:USF.COMPS:ARP:1,2015-02-02T00:12:00Z,28.4330,-82.6670,0.13,1111122 
COMPS,ioos:station:USF.COMPS:ARP:1,2015-02-02T00:18:00Z,28.4330,-82.6670,0.139,1111122 
COMPS,ioos:station:USF.COMPS:ARP:1,2015-02-02T00:24:00Z,28.4330,-82.6670,0.148,1111122 
COMPS,ioos:station:USF.COMPS:ARP:1,2015-02-02T00:30:00Z,28.4330,-82.6670,0.157,1111122 
COMPS,ioos:station:USF.COMPS:ARP:1,2015-02-02T00:36:00Z,28.4330,-82.6670,0.163,1111122 
COMPS,ioos:station:USF.COMPS:ARP:1,2015-02-02T00:42:00Z,28.4330,-82.6670,0.175,1111122 
COMPS,ioos:station:USF.COMPS:ARP:1,2015-02-02T00:48:00Z,28.4330,-82.6670,0.186,1111122 
COMPS,ioos:station:USF.COMPS:ARP:1,2015-02-02T00:54:00Z,28.4330,-82.6670,0.201,1111122 
COMPS,ioos:station:USF.COMPS:ARP:1,2015-02-02T01:00:00Z,28.4330,-82.6670,0.217,1111122 
COMPS,ioos:station:USF.COMPS:ARP:1,2015-02-02T01:06:00Z,28.4330,-82.6670,0.235,1111122 
COMPS,ioos:station:USF.COMPS:ARP:1,2015-02-02T01:12:00Z,28.4330,-82.6670,0.256,1111122 
COMPS,ioos:station:USF.COMPS:ARP:1,2015-02-02T01:18:00Z,28.4330,-82.6670,0.272,1111122 
COMPS,ioos:station:USF.COMPS:ARP:1,2015-02-02T01:24:00Z,28.4330,-82.6670,0.29,1111122 
COMPS,ioos:station:USF.COMPS:ARP:1,2015-02-02T01:30:00Z,28.4330,-82.6670,0.311,1111122 
COMPS,ioos:station:USF.COMPS:ARP:1,2015-02-02T01:36:00Z,28.4330,-82.6670,0.327,1111122 
COMPS,ioos:station:USF.COMPS:ARP:1,2015-02-02T01:42:00Z,28.4330,-82.6670,0.344,1111122 
COMPS,ioos:station:USF.COMPS:ARP:1,2015-02-02T01:48:00Z,28.4330,-82.6670,0.36,1111122 
COMPS,ioos:station:USF.COMPS:ARP:1,2015-02-02T01:54:00Z,28.4330,-82.6670,0.375,1111122 
COMPS,ioos:station:USF.COMPS:ARP:1,2015-02-02T02:00:00Z,28.4330,-82.6670,0.393,1111122 
COMPS,ioos:station:USF.COMPS:ARP:1,2015-02-02T02:06:00Z,28.4330,-82.6670,0.408,1111122 
COMPS,ioos:station:USF.COMPS:ARP:1,2015-02-02T02:12:00Z,28.4330,-82.6670,0.434,1111122 
COMPS,ioos:station:USF.COMPS:ARP:1,2015-02-02T02:18:00Z,28.4330,-82.6670,0.452,1111122 
COMPS,ioos:station:USF.COMPS:ARP:1,2015-02-02T02:24:00Z,28.4330,-82.6670,0.469,1111122 
COMPS,ioos:station:USF.COMPS:ARP:1,2015-02-02T02:30:00Z,28.4330,-82.6670,0.486,1111122 
COMPS,ioos:station:USF.COMPS:ARP:1,2015-02-02T02:36:00Z,28.4330,-82.6670,0.503,1111122 
COMPS,ioos:station:USF.COMPS:ARP:1,2015-02-02T02:42:00Z,28.4330,-82.6670,0.52,1111122 
COMPS,ioos:station:USF.COMPS:ARP:1,2015-02-02T02:48:00Z,28.4330,-82.6670,0.538,1111122 
COMPS,ioos:station:USF.COMPS:ARP:1,2015-02-02T02:54:00Z,28.4330,-82.6670,0.556,1111122 
COMPS,ioos:station:USF.COMPS:ARP:1,2015-02-02T03:00:00Z,28.4330,-82.6670,0.574,1111122 
COMPS,ioos:station:USF.COMPS:ARP:1,2015-02-02T03:06:00Z,28.4330,-82.6670,0.585,1111122 
COMPS,ioos:station:USF.COMPS:ARP:1,2015-02-02T03:12:00Z,28.4330,-82.6670,0.598,1111122 